Weather in Praskoveevka

Russia / Krasnodar Krai     44°28′26″N   38°13′04″E
temp.,
°C
wind,
m/s
gust,
m/s
humid.,
%
clouds,
%
prec.,
mm/h
press.,
hPa
HPBL,
m
10 may, mon
mon1000:00+6nw226723 0.0 102527
03:00+5nnw227764 0.1 102535
06:00+6nnw227211 0.0 102539
09:00+12nw354166 0.1 10242143
12:00+12wnw4545100 0.2 10241955
15:00+13w564390 0.3 10231992
18:00+11w565090 0.0 10221382
21:00+8wsw26628 0.0 1022197
11 may, tue
tue1100:00+7w3872100 0.0 1020235
03:00+9wsw5972100 0.2 1018586
06:00+9sw71081100 0.6 1017878
09:00+8sw81290100 2.8 10161160
12:00+9sw81390100 2.6 10161404
15:00+9sw71194100 7.2 10161040
18:00+9sw61092100 5.3 1016911
21:00+9ssw51091100 8.3 1016735
12 may, wed
wed1200:00+9ssw4987100 0.6 1016486
03:00+10ssw4880100 0.6 1015511
06:00+10sse367899 0.0 1016290
09:00+13sse355723 0.0 1015922
12:00+16ssw23455 0.0 1015894
15:00+18sw22415 0.0 1014882
18:00+15wnw116156 0.0 1014125
21:00+11nne22880 0.0 101334
13 may, thu
thu1300:00+11ne2286100 0.0 101224
03:00+11nne228218 0.0 101126
06:00+12ne32645 0.0 101131
09:00+23nne123683 0.0 1010292
12:00+25se1332100 0.0 1010757
15:00+27sse253266 0.0 1009893
18:00+23ne11634 0.0 100939
21:00+17ne22844 0.0 100915
14 may, fri
fri1400:00+18ene22645 0.0 100915
03:00+17n1156100 0.0 100911
06:00+17ne2256100 0.0 101019
09:00+24sse1143100 0.0 1010229
12:00+27sw2237100 0.0 1010671
15:00+27sw233666 0.0 1010539
18:00+22wnw116512 0.0 101042
21:00+18nne22760 0.0 101016